{"data":{"norad_id":56427,"intl_designator":"2023-061BF","name":"STARLINK-5724","alt_names":[],"object_type":"PAYLOAD","status":"ACTIVE","operator":null,"country":"US","launch_date":"2023-05-04","launch_site_code":"AFETR","launch_vehicle":null,"mission":null,"orbit_class":"UNKNOWN","rcs_meters":null,"size_class":null,"mass_kg":null,"dimensions":null,"purposes":["comms"],"wikipedia_slug":null,"has_3d_model":false,"image_url":null,"decayed_at":null,"tle_current":{"epoch":"2026-05-25T04:19:43.308768Z","epoch_age_seconds":59237,"freshness":"FRESH","line1":"1 56427U 23061BF  26145.18036237  .00000442  00000+0  25603-4 0  9993","line2":"2 56427  43.0033 107.9268 0001111 265.9041  94.1683 15.27576861168658","mean_motion":15.27576861,"eccentricity":0.0001111,"inclination_deg":43.0033,"raan_deg":107.9268,"arg_perigee_deg":265.9041,"mean_anomaly_deg":94.1683,"bstar":2.5603e-5,"rev_number":16865,"period_min":94.266942421302,"perigee_km":482.29621653146,"apogee_km":483.82077417053,"semimajor_km":6861.195495351,"source":"CELESTRAK","updated_at":"2026-05-25T13:38:18.065007Z"}}}